Weather History for Batna, Algeria

Change the Weather History Date:

Friday, February 1, 2013

  Actual Average Record
Temperature  
Mean Temperature 50 °F -  
Max Temperature 71 °F - - ()
Min Temperature 28 °F - - ()
Degree Days  
Heating Degree Days 16    
Moisture  
Dew Point 31 °F    
Average Humidity 56    
Maximum Humidity 93    
Minimum Humidity 10    
Precipitation  
Precipitation 0.00 in - - ()
Sea Level Pressure  
Sea Level Pressure 30.29 in    
Wind  
Wind Speed 6 mph ()    
Max Wind Speed 14 mph    
Max Gust Speed -    
Visibility 9.2 miles    
Events      
T = Trace of Precipitation, MM = Missing Value Source: Averaged Metar Reports

Daily Weather History Graph

Daily Weather History Graph

Search for Another Location

Airport:

Trip Planner

Search our weather history database for the weather conditions in past years. The results will help you decide how hot, cold, wet, or windy it might be!

Date:

Astronomy

Feb. 01, 2013 Rise Set
Actual Time 7:34 AM CET 6:02 PM CET
Civil Twilight 7:08 AM CET 6:29 PM CET
Nautical Twilight 6:37 AM CET 6:59 PM CET
Astronomical Twilight 6:07 AM CET 7:29 PM CET
Moon 11:38 PM CET (2/1) 10:11 AM CET (2/1)
Length of Visible Light 11h 21m
Length of Day
10h 27m
Waning Gibbous, 73% of the Moon is Illuminated
Feb 1
Waning Gibbous
Feb 3
Last Quarter
Feb 10
New
Feb 17
First Quarter
Feb 25
Full

Hourly Weather History & Observations

Time (CET) Temp. Windchill Dew Point Humidity Pressure Visibility Wind Dir Wind Speed Gust Speed Precip Events Conditions
12:00 AM 41.0 °F 38.0 °F 35.6 °F 81% 30.45 in - NE 4.6 mph - N/A   Clear
1:00 AM 37 °F - 32 °F 76%  in 6 mi East 9.2 mph - -  
1:00 AM 37.4 °F 30.8 °F 32.0 °F 81% 30.45 in - East 9.2 mph - N/A   Clear
2:00 AM 35.6 °F 31.7 °F 32.0 °F 87% 30.42 in - East 4.6 mph - N/A   Clear
3:00 AM 35.6 °F 31.7 °F 32.0 °F 87% 30.42 in - East 4.6 mph - N/A   Clear
4:00 AM 32 °F - 29 °F 86%  in 6 mi SSE 4.6 mph - -  
4:00 AM 32.0 °F 27.5 °F 30.2 °F 93% 30.36 in - SSE 4.6 mph - N/A   Clear
5:00 AM 32.0 °F 27.5 °F 30.2 °F 93% 30.36 in - ESE 4.6 mph - N/A   Clear
6:00 AM 30.2 °F 25.4 °F 28.4 °F 93% 30.36 in - ESE 4.6 mph - N/A   Clear
7:00 AM 28 °F - 26 °F 90%  in 6 mi ESE 4.6 mph - -  
7:00 AM 28.4 °F 23.3 °F 26.6 °F 93% 30.36 in - ESE 4.6 mph - N/A   Clear
9:00 AM 35.6 °F 29.9 °F 30.2 °F 81% 30.36 in - ESE 6.9 mph - N/A   Clear
10:00 AM 42 °F - 35 °F 68%  in 12 mi East 4.6 mph - -  
10:00 AM 42.8 °F 40.1 °F 35.6 °F 76% 30.36 in - East 4.6 mph - N/A   Clear
11:00 AM 50.0 °F - 37.4 °F 62% 30.36 in - NNW 6.9 mph - N/A   Clear
12:00 PM 59.0 °F - 35.6 °F 42% 30.33 in - West 11.5 mph - N/A   Clear
1:00 PM 61 °F - 35 °F 26%  in 16 mi WNW 6.9 mph - -   Clear
1:00 PM 60.8 °F - 35.6 °F 39% 30.30 in - WNW 6.9 mph - N/A   Clear
2:00 PM 66.2 °F - 33.8 °F 30% 30.27 in - NW 4.6 mph - N/A   Clear
3:00 PM 71.6 °F - 32.0 °F 23% 30.21 in - West 6.9 mph - N/A   Clear
4:00 PM 72 °F - 28 °F 10%  in 16 mi WSW 6.9 mph - -   Clear
4:00 PM 71.6 °F - 28.4 °F 20% 30.18 in - WSW 6.9 mph - N/A   Clear
5:00 PM 69.8 °F - 30.2 °F 23% 30.18 in - West 6.9 mph - N/A   Clear
6:00 PM 64.4 °F - 35.6 °F 34% 30.15 in - SW 11.5 mph - N/A   Clear
7:00 PM 57 °F - 30 °F 24%  in 6 mi WSW 13.8 mph - -   Clear
7:00 PM 57.2 °F - 30.2 °F 36% 30.18 in - WSW 13.8 mph - N/A   Clear
8:00 PM 51.8 °F - 32.0 °F 47% 30.18 in - West 11.5 mph - N/A   Clear
9:00 PM 50.0 °F - 33.8 °F 54% 30.15 in - SSE 11.5 mph - N/A   Clear
10:00 PM 54 °F - 22 °F 17%  in 6 mi East 4.6 mph - -   Clear
10:00 PM 53.6 °F - 21.2 °F 28% 30.12 in - ESE 4.6 mph - N/A   Clear
11:00 PM 50.0 °F - 23.0 °F 35% 30.12 in - East 6.9 mph - N/A   Clear